Estación de El Cardal INIA

Ultimos registro cada 15 minutos 49
Estación Fecha / Hora Temperatura Humedad Lluvia Velocidad Dirección Radiación Presion
49 El Cardal INIA 09-05-2026 12:00 6,4 97,5 0 0 0 473 1020
48 El Cardal INIA 09-05-2026 11:45 5,1 99,8 0 0 247 358 1020
47 El Cardal INIA 09-05-2026 11:30 4,5 99,2 0 0 0 360 1020
46 El Cardal INIA 09-05-2026 11:15 3,9 100 0 0 0 283 1020
45 El Cardal INIA 09-05-2026 11:00 3,4 100 0 0 0 268 1020
44 El Cardal INIA 09-05-2026 10:45 3 100 0 0 0 268 1020
43 El Cardal INIA 09-05-2026 10:30 2,4 100 0,1 0 0 189 1020
42 El Cardal INIA 09-05-2026 10:15 2,1 100 0 0 0 195 1020
41 El Cardal INIA 09-05-2026 10:00 1,7 100 0 0 0 154 1020
40 El Cardal INIA 09-05-2026 09:45 1,3 100 0 0 0 133 1020
39 El Cardal INIA 09-05-2026 09:30 1,2 100 0 0 0 94 1020
38 El Cardal INIA 09-05-2026 09:15 0,8 100 0 0 0 73 1020
37 El Cardal INIA 09-05-2026 09:00 0,4 100 0 0 0 59 1020
36 El Cardal INIA 09-05-2026 08:45 0,2 100 0 0 0 40 1020
35 El Cardal INIA 09-05-2026 08:30 0 100 0 0 0 27 1020
34 El Cardal INIA 09-05-2026 08:15 0,1 100 0 0 0 14 1020
33 El Cardal INIA 09-05-2026 08:00 0 100 0 0 0 5 1020
32 El Cardal INIA 09-05-2026 07:45 -0,2 100 0 0 0 1 1020
31 El Cardal INIA 09-05-2026 07:30 -0,1 100 0 0 0 0 1020
30 El Cardal INIA 09-05-2026 07:15 -0,2 100 0 0 0 0 1020
29 El Cardal INIA 09-05-2026 07:00 -0,3 100 0 0 0 0 1020
28 El Cardal INIA 09-05-2026 06:45 -0,6 100 0 0 0 0 1020
27 El Cardal INIA 09-05-2026 06:30 -0,8 100 0 0 0 0 1020
26 El Cardal INIA 09-05-2026 06:15 -1 100 0 0 0 0 1020
25 El Cardal INIA 09-05-2026 06:00 -1,1 100 0 0 54 0 1020
24 El Cardal INIA 09-05-2026 05:45 -1,3 100 0 0,2 65 0 1020
23 El Cardal INIA 09-05-2026 05:30 -1,4 100 0 0 0 0 1020
22 El Cardal INIA 09-05-2026 05:15 -1,7 100 0 0,3 18 0 1020
21 El Cardal INIA 09-05-2026 05:00 -1,2 100 0 0,6 94 0 1020
20 El Cardal INIA 09-05-2026 04:45 -0,4 100 0 0 0 0 1020
19 El Cardal INIA 09-05-2026 04:30 -0,8 100 0 0,1 39 0 1020
18 El Cardal INIA 09-05-2026 04:15 -0,6 100 0 0,3 44 0 1020
17 El Cardal INIA 09-05-2026 04:00 0 100 0 0 0 0 1020
16 El Cardal INIA 09-05-2026 03:45 0 100 0 0 0 0 1021
15 El Cardal INIA 09-05-2026 03:30 0,1 100 0 0 0 0 1021
14 El Cardal INIA 09-05-2026 03:15 -0,1 99,8 0 0 0 0 1021
13 El Cardal INIA 09-05-2026 03:00 -0,4 100 0 0 0 0 1021
12 El Cardal INIA 09-05-2026 02:45 0,1 99,5 0 0 175 0 1021
11 El Cardal INIA 09-05-2026 02:30 0,5 99,3 0 0,2 241 0 1021
10 El Cardal INIA 09-05-2026 02:15 0,6 99,8 0 0 0 0 1021
9 El Cardal INIA 09-05-2026 02:00 1,1 99,7 0 0,1 226 0 1021
8 El Cardal INIA 09-05-2026 01:45 1 99,6 0 0 0 0 1021
7 El Cardal INIA 09-05-2026 01:30 1,8 99 0 0 0 0 1021
6 El Cardal INIA 09-05-2026 01:15 1,9 99,7 0 0 255 0 1021
5 El Cardal INIA 09-05-2026 01:00 1,5 100 0 0,1 254 0 1021
4 El Cardal INIA 09-05-2026 00:45 1,4 98,7 0 0 0 0 1021
3 El Cardal INIA 09-05-2026 00:30 1,3 98,4 0 0,1 44 0 1021
2 El Cardal INIA 09-05-2026 00:15 2,4 96,7 0 0 0 0 1021
1 El Cardal INIA 09-05-2026 00:00 2 99,4 0 0 0 0 1021